Findlay, OH

9:53 PM EST on December 09, 2019 (GMT -0500)
Findlay

Weather History for KFDY - October, 2019

Change the Weather History Date:

Friday, October 4, 2019

  Actual Average Record
Temperature  
Mean Temperature 56 °F -  
Max Temperature 64 °F 67 °F 90 °F (1951)
Min Temperature 50 °F 46 °F 30 °F (1987)
Degree Days  
Heating Degree Days 8    
Growing Degree Days 6 (Base 50)    
Moisture  
Dew Point 46 °F    
Average Humidity 67    
Maximum Humidity 83    
Minimum Humidity 52    
Precipitation  
Precipitation 0.00 in - - ()
Sea Level Pressure  
Sea Level Pressure 30.28 in    
Wind  
Wind Speed 11 mph (North)    
Max Wind Speed 17 mph    
Max Gust Speed 21 mph    
Visibility 10 miles    
Events      
Averages and records for this station are not official NWS values.
T = Trace of Precipitation, MM = Missing Value Source: NWS Daily Summary

Daily Weather History Graph

Daily Weather History Graph

Search for Another Location

Airport or City:

Astronomy

Oct. 04, 2019 Rise Set
Actual Time 7:34 AM EDT 7:12 PM EDT
Civil Twilight 7:06 AM EDT 7:39 PM EDT
Nautical Twilight 6:34 AM EDT 8:11 PM EDT
Astronomical Twilight 6:02 AM EDT 8:43 PM EDT
Moon 2:07 PM EDT (10/4) 11:37 PM EDT (10/4)
Length of Visible Light 12h 32m
Length of Day
11h 37m
Waxing Crescent, 39% of the Moon is Illuminated
Oct 4
Waxing Crescent
Oct 5
First Quarter
Oct 13
Full
Oct 21
Last Quarter
Oct 27
New

Hourly Weather History & Observations

Time (EDT) Temp. Dew Point Humidity Pressure Visibility Wind Dir Wind Speed Gust Speed Precip Events Conditions
12:53 AM 57.9 °F 48.0 °F 70% 30.14 in 10.0 mi NW 12.7 mph - N/A   Mostly Cloudy
1:53 AM 57.9 °F 46.0 °F 65% 30.17 in 10.0 mi NNW 11.5 mph - N/A   Overcast
2:53 AM 55.0 °F 43.0 °F 64% 30.17 in 10.0 mi NNW 8.1 mph - N/A   Clear
3:53 AM 52.0 °F 44.1 °F 74% 30.18 in 10.0 mi WNW 4.6 mph - N/A   Clear
4:53 AM 50.0 °F 45.0 °F 83% 30.20 in 10.0 mi West 5.8 mph - N/A   Clear
5:53 AM 51.1 °F 45.0 °F 80% 30.22 in 10.0 mi WNW 5.8 mph - N/A   Mostly Cloudy
6:53 AM 52.0 °F 46.0 °F 80% 30.24 in 10.0 mi NNW 8.1 mph - N/A   Clear
7:53 AM 51.1 °F 46.0 °F 83% 30.26 in 10.0 mi NNW 5.8 mph - N/A   Clear
8:53 AM 55.0 °F 46.9 °F 74% 30.28 in 10.0 mi North 8.1 mph - N/A   Clear
9:53 AM 57.0 °F 48.0 °F 72% 30.30 in 10.0 mi North 11.5 mph - N/A   Partly Cloudy
10:19 AM 57.9 °F 48.0 °F 70% 30.32 in 10.0 mi North 11.5 mph - N/A   Mostly Cloudy
10:53 AM 59.0 °F 48.0 °F 67% 30.32 in 10.0 mi NNE 16.1 mph - N/A   Mostly Cloudy
11:09 AM 59.0 °F 48.9 °F 69% 30.33 in 10.0 mi NNE 16.1 mph - N/A   Mostly Cloudy
11:53 AM 61.0 °F 48.9 °F 64% 30.32 in 10.0 mi NNE 16.1 mph - N/A   Mostly Cloudy
12:53 PM 61.0 °F 46.9 °F 60% 30.32 in 10.0 mi North 17.3 mph - N/A   Mostly Cloudy
1:19 PM 61.0 °F 46.0 °F 58% 30.34 in 10.0 mi North 10.4 mph - N/A   Overcast
1:31 PM 62.1 °F 46.9 °F 58% 30.33 in 10.0 mi North 15.0 mph - N/A   Overcast
1:43 PM 61.0 °F 46.9 °F 60% 30.33 in 10.0 mi North 12.7 mph - N/A   Overcast
1:50 PM 62.6 °F 46.4 °F 55% 30.33 in 10.0 mi North 13.8 mph 18.4 mph N/A   Overcast
1:53 PM 62.1 °F 46.0 °F 56% 30.32 in 10.0 mi North 13.8 mph - N/A   Overcast
2:53 PM 62.1 °F 46.0 °F 56% 30.30 in 10.0 mi North 10.4 mph - N/A   Mostly Cloudy
3:53 PM 63.0 °F 45.0 °F 52% 30.30 in 10.0 mi NE 8.1 mph 20.7 mph N/A   Overcast
4:53 PM 63.0 °F 46.0 °F 54% 30.30 in 10.0 mi NE 13.8 mph - N/A   Mostly Cloudy
5:53 PM 60.1 °F 43.0 °F 53% 30.30 in 10.0 mi NNE 12.7 mph - N/A   Mostly Cloudy
6:53 PM 57.9 °F 46.9 °F 67% 30.31 in 10.0 mi NNE 13.8 mph - N/A   Clear
7:53 PM 55.9 °F 46.0 °F 69% 30.31 in 10.0 mi NE 12.7 mph - N/A   Clear
8:53 PM 55.0 °F 46.0 °F 72% 30.32 in 10.0 mi NE 9.2 mph - N/A   Mostly Cloudy
9:53 PM 54.0 °F 45.0 °F 72% 30.32 in 10.0 mi NE 10.4 mph - N/A   Clear
10:53 PM 53.1 °F 45.0 °F 74% 30.33 in 10.0 mi NNE 9.2 mph - N/A   Clear
11:53 PM 52.0 °F 45.0 °F 77% 30.33 in 10.0 mi NE 9.2 mph - N/A   Clear